GW6833 Weather Reports


time (UTC)temp
C
wind
direction
speed
KPH
gust
KPH
rain 1hr
cm
rain 24hr
cm
rain mn
cm
humidity
%
barometer
mb
20260906212306 27 140 17.7 19.3 0.00 0.00 0.00 33 1019.5
20260906211805 27 141 16.1 24.1 0.00 0.00 0.00 33 1019.6
20260906211300 27 115 11.3 22.5 0.00 0.00 0.00 35 1019.7
20260906210755 28 134 12.9 27.4 0.00 0.00 0.00 33 1019.6
20260906210255 29 185 3.2 16.1 0.00 0.00 0.00 31 1019.5
20260906205750 29 128 22.5 37.0 0.00 0.00 0.00 32 1019.6
20260906205247 30 151 16.1 19.3 0.00 0.00 0.00 30 1019.5
20260906204742 30 131 17.7 24.1 0.00 0.00 0.00 31 1019.6
20260906204241 28 168 16.1 30.6 0.00 0.00 0.00 31 1019.7
20260906203740 28 140 14.5 27.4 0.00 0.00 0.00 33 1019.8
20260906203236 29 118 8.0 8.0 0.00 0.00 0.00 33 1019.8
20260906202733 29 122 14.5 24.1 0.00 0.00 0.00 33 1019.8
20260906202232 28 121 12.9 16.1 0.00 0.00 0.00 35 1019.8
20260906201727 29 132 17.7 19.3 0.00 0.00 0.00 34 1020.0
20260906201226 28 129 22.5 22.5 0.00 0.00 0.00 35 1020.0
20260906200722 28 117 12.9 30.6 0.00 0.00 0.00 34 1020.1
20260906200218 29 132 19.3 24.1 0.00 0.00 0.00 34 1020.0
20260906195713 28 133 19.3 27.4 0.00 0.00 0.00 33 1020.1
20260906195210 29 132 14.5 20.9 0.00 0.00 0.00 32 1020.3
20260906194705 29 148 6.4 16.1 0.00 0.00 0.00 29 1020.3
20260906194200 29 177 9.7 14.5 0.00 0.00 0.00 27 1020.3
20260906193655 29 117 3.2 12.9 0.00 0.00 0.00 27 1020.2
20260906193150 28 115 16.1 16.1 0.00 0.00 0.00 28 1020.3
20260906192646 28 347 3.2 12.9 0.00 0.00 0.00 29 1020.5
20260906192145 28 123 6.4 16.1 0.00 0.00 0.00 29 1020.5
20260906191640 28 333 1.6 4.8 0.00 0.00 0.00 30 1020.7
20260906191139 28 209 6.4 11.3 0.00 0.00 0.00 29 1020.6
20260906190634 28 165 9.7 17.7 0.00 0.00 0.00 30 1020.9
20260906190129 27 124 11.3 19.3 0.00 0.00 0.00 31 1020.9
20260906185628 27 94 12.9 14.5 0.00 0.00 0.00 33 1020.9
20260906185127 27 140 16.1 17.7 0.00 0.00 0.00 33 1021.3
20260906184622 27 113 17.7 20.9 0.00 0.00 0.00 35 1021.3
20260906184118 27 133 14.5 24.1 0.00 0.00 0.00 36 1021.4
20260906183613 27 113 11.3 20.9 0.00 0.00 0.00 37 1021.4
20260906183109 27 96 6.4 12.9 0.00 0.00 0.00 37 1021.5
20260906182603 27 162 17.7 25.7 0.00 0.00 0.00 39 1021.4
20260906182100 27 101 4.8 14.5 0.00 0.00 0.00 40 1021.5
20260906181555 27 147 9.7 19.3 0.00 0.00 0.00 34 1021.7
20260906181051 28 121 12.9 17.7 0.00 0.00 0.00 35 1021.8
20260906180551 27 73 9.7 9.7 0.00 0.00 0.00 36 1021.8
20260906180050 27 71 4.8 12.9 0.00 0.00 0.00 35 1021.9
20260906175549 28 114 14.5 14.5 0.00 0.00 0.00 34 1022.2
20260906175044 27 77 6.4 11.3 0.00 0.00 0.00 35 1022.2
20260906174542 27 93 3.2 9.7 0.00 0.00 0.00 36 1022.2
20260906174037 27 326 16.1 22.5 0.00 0.00 0.00 38 1022.0
20260906173532 26 243 4.8 9.7 0.00 0.00 0.00 41 1022.2
20260906173029 26 255 4.8 8.0 0.00 0.00 0.00 41 1022.2
20260906172528 26 52 1.6 9.7 0.00 0.00 0.00 43 1022.5
20260906172024 25 124 4.8 6.4 0.00 0.00 0.00 44 1022.2
20260906171519 25 181 0.0 6.4 0.00 0.00 0.00 44 1022.6
20260906171014 25 202 4.8 6.4 0.00 0.00 0.00 44 1022.6
20260906170510 25 96 4.8 6.4 0.00 0.00 0.00 44 1022.5
20260906170009 25 194 3.2 14.5 0.00 0.00 0.00 45 1022.8
20260906165506 25 218 9.7 14.5 0.00 0.00 0.00 45 1022.5
20260906165001 25 189 4.8 8.0 0.00 0.00 0.00 46 1022.6
20260906164459 25 196 8.0 11.3 0.00 0.00 0.00 46 1022.8
20260906163956 24 222 0.0 6.4 0.00 0.00 0.00 48 1022.9
20260906163451 23 191 4.8 11.3 0.00 0.00 0.00 50 1022.8
20260906162950 23 146 11.3 12.9 0.00 0.00 0.00 51 1022.9
20260906162448 23 134 6.4 16.1 0.00 0.00 0.00 52 1022.9
20260906161943 23 168 8.0 16.1 0.00 0.00 0.00 51 1023.1
20260906161444 22 175 6.4 11.3 0.00 0.00 0.00 53 1023.1
20260906160943 22 158 8.0 14.5 0.00 0.00 0.00 54 1023.1
20260906160442 22 135 14.5 16.1 0.00 0.00 0.00 55 1023.0
20260906155941 22 185 12.9 14.5 0.00 0.00 0.00 55 1022.9
20260906155439 22 173 8.0 16.1 0.00 0.00 0.00 56 1023.1
20260906154936 21 143 8.0 9.7 0.00 0.00 0.00 58 1022.8
20260906154431 21 145 9.7 9.7 0.00 0.00 0.00 58 1022.9
20260906153929 21 156 9.7 17.7 0.00 0.00 0.00 60 1022.8
20260906153428 20 129 17.7 19.3 0.00 0.00 0.00 63 1022.9
20260906152923 20 137 11.3 16.1 0.00 0.00 0.00 62 1023.1
20260906152418 20 152 12.9 14.5 0.00 0.00 0.00 64 1023.0
20260906151917 20 182 4.8 12.9 0.00 0.00 0.00 64 1022.6
20260906151413 21 191 9.7 12.9 0.00 0.00 0.00 62 1022.9
20260906150909 20 177 6.4 14.5 0.00 0.00 0.00 63 1022.6
20260906150409 20 173 9.7 14.5 0.00 0.00 0.00 66 1022.8
20260906145908 20 172 9.7 14.5 0.00 0.00 0.00 66 1022.9
20260906145407 19 176 9.7 14.5 0.00 0.00 0.00 68 1023.0
20260906144902 19 143 11.3 16.1 0.00 0.00 0.00 67 1023.0
20260906144357 20 170 11.3 16.1 0.00 0.00 0.00 68 1022.8
20260906143852 19 169 9.7 17.7 0.00 0.00 0.00 69 1022.8
20260906143348 18 170 9.7 19.3 0.00 0.00 0.00 71 1022.8
20260906142844 18 176 11.3 14.5 0.00 0.00 0.00 73 1022.8
20260906142338 17 177 14.5 17.7 0.00 0.00 0.00 76 1022.8
20260906141838 16 178 6.4 9.7 0.00 0.00 0.00 81 1022.8
20260906141333 16 174 3.2 8.0 0.00 0.00 0.00 83 1022.9
20260906140832 15 166 3.2 9.7 0.00 0.00 0.00 83 1022.9
20260906140327 15 180 8.0 11.3 0.00 0.00 0.00 83 1023.0
20260906135824 16 175 9.7 12.9 0.00 0.00 0.00 82 1022.8
20260906135320 16 171 8.0 11.3 0.00 0.00 0.00 80 1023.0
20260906134815 16 170 8.0 9.7 0.00 0.00 0.00 81 1023.0
20260906134310 16 169 8.0 11.3 0.00 0.00 0.00 81 1022.9
20260906133806 16 173 6.4 9.7 0.00 0.00 0.00 81 1022.8
20260906133301 16 175 9.7 11.3 0.00 0.00 0.00 82 1022.8
20260906132751 16 170 6.4 9.7 0.00 0.00 0.00 83 1022.6
20260906132246 15 177 6.4 9.7 0.00 0.00 0.00 84 1022.8
20260906131741 15 166 6.4 12.9 0.00 0.00 0.00 85 1022.9
20260906131236 15 175 11.3 12.9 0.00 0.00 0.00 86 1022.9
20260906130732 15 201 6.4 8.0 0.00 0.00 0.00 86 1022.6
20260906130227 15 167 6.4 9.7 0.00 0.00 0.00 86 1022.8
20260906125725 14 162 8.0 11.3 0.00 0.00 0.00 87 1022.6
20260906125223 14 175 6.4 11.3 0.00 0.00 0.00 88 1022.6
20260906124723 13 171 4.8 9.7 0.00 0.00 0.00 89 1022.6
20260906124219 13 201 6.4 9.7 0.00 0.00 0.00 88 1022.5
20260906123718 13 209 6.4 9.7 0.00 0.00 0.00 88 1022.8
20260906123213 13 193 4.8 8.0 0.00 0.00 0.00 89 1022.6
20260906122712 13 186 8.0 9.7 0.00 0.00 0.00 88 1022.5
20260906122208 13 185 4.8 8.0 0.00 0.00 0.00 88 1022.6
20260906121705 13 195 4.8 9.7 0.00 0.00 0.00 88 1022.5
20260906121200 14 190 9.7 11.3 0.00 0.00 0.00 86 1022.4
20260906120656 14 165 9.7 16.1 0.00 0.00 0.00 88 1022.3
20260906120154 14 171 8.0 16.1 0.00 0.00 0.00 87 1022.4
20260906115653 14 174 9.7 14.5 0.00 0.00 0.00 87 1022.2
20260906115149 14 179 9.7 17.7 0.00 0.00 0.00 86 1022.2
20260906114648 14 178 9.7 14.5 0.00 0.00 0.00 85 1022.3
20260906114143 14 167 8.0 16.1 0.00 0.00 0.00 84 1022.5
20260906113643 14 173 9.7 16.1 0.00 0.00 0.00 84 1022.4
20260906113143 14 180 9.7 14.5 0.00 0.00 0.00 83 1022.3
20260906112642 14 181 6.4 9.7 0.00 0.00 0.00 82 1022.5
20260906112140 15 187 6.4 16.1 0.00 0.00 0.00 82 1022.4
20260906111639 15 173 11.3 16.1 0.00 0.00 0.00 81 1022.4
20260906111134 15 180 14.5 14.5 0.00 0.00 0.00 81 1022.4
20260906110629 15 179 4.8 9.7 0.00 0.00 0.00 79 1022.4
20260906110130 15 187 6.4 9.7 0.00 0.00 0.00 78 1022.4
20260906105624 15 171 4.8 9.7 0.00 0.00 0.00 78 1022.3
20260906105121 15 177 6.4 11.3 0.00 0.00 0.00 75 1022.4
20260906104620 15 189 6.4 11.3 0.00 0.00 0.00 75 1022.3
20260906104119 15 180 4.8 11.3 0.00 0.00 0.00 73 1022.5
20260906103617 15 197 4.8 6.4 0.00 0.00 0.00 74 1022.5
20260906103113 15 189 4.8 6.4 0.00 0.00 0.00 72 1022.4
20260906102613 15 220 4.8 9.7 0.00 0.00 0.00 70 1022.5
20260906102109 15 155 3.2 11.3 0.00 0.00 0.00 70 1022.3
20260906101608 15 189 3.2 6.4 0.00 0.00 0.00 70 1022.4
20260906101108 15 189 6.4 9.7 0.00 0.00 0.00 70 1022.4
20260906100604 16 194 8.0 8.0 0.00 0.00 0.00 70 1022.3
20260906100104 16 202 4.8 8.0 0.00 0.00 0.00 70 1022.4
20260906095604 16 236 3.2 6.4 0.00 0.00 0.00 70 1022.3
20260906095059 16 227 6.4 11.3 0.00 0.00 0.00 71 1022.2
20260906094558 16 243 4.8 9.7 0.00 0.00 0.00 70 1022.2
20260906094054 16 233 8.0 9.7 0.00 0.00 0.00 70 1022.0
20260906093550 16 253 3.2 9.7 0.00 0.00 0.00 70 1022.2
20260906093045 16 238 8.0 11.3 0.00 0.00 0.00 69 1021.9
20260906092540 16 231 6.4 9.7 0.00 0.00 0.00 69 1021.9
20260906092035 16 234 9.7 14.5 0.00 0.00 0.00 69 1022.0
20260906091531 16 238 6.4 9.7 0.00 0.00 0.00 69 1022.0
20260906091028 15 236 9.7 11.3 0.00 0.00 0.00 69 1022.0
20260906090528 15 231 9.7 14.5 0.00 0.00 0.00 70 1021.9
20260906090023 15 241 4.8 6.4 0.00 0.00 0.00 70 1022.2
20260906085521 14 221 3.2 8.0 0.00 0.00 0.00 69 1022.2
20260906085021 14 218 3.2 6.4 0.00 0.00 0.00 69 1021.9
20260906084521 14 204 4.8 9.7 0.00 0.00 0.00 69 1021.8
20260906084020 13 231 3.2 9.7 0.00 0.00 0.00 69 1022.0
20260906083516 14 187 3.2 9.7 0.00 0.00 0.00 68 1021.9
20260906083015 14 213 8.0 9.7 0.00 0.00 0.00 69 1022.2
20260906082511 15 175 4.8 6.4 0.00 0.00 0.00 70 1022.3
20260906082007 15 180 4.8 9.7 0.00 0.00 0.00 69 1022.5
20260906081502 15 241 3.2 11.3 0.00 0.00 0.00 69 1022.4
20260906080957 15 249 6.4 14.5 0.00 0.00 0.00 73 1022.3
20260906080454 15 233 8.0 9.7 0.00 0.00 0.00 74 1022.5
20260906075949 14 261 4.8 6.4 0.00 0.00 0.00 78 1022.4
20260906075444 13 237 3.2 4.8 0.00 0.00 0.00 79 1022.6
20260906074939 14 267 6.4 9.7 0.00 0.00 0.00 77 1022.2
20260906074438 15 259 9.7 11.3 0.00 0.00 0.00 75 1022.3
20260906073937 16 260 9.7 9.7 0.00 0.00 0.00 75 1022.4
20260906073432 16 255 9.7 14.5 0.00 0.00 0.00 77 1022.2
20260906072928 15 258 9.7 12.9 0.00 0.00 0.00 78 1022.3
20260906072423 16 260 6.4 9.7 0.00 0.00 0.00 77 1022.4
20260906071919 15 239 8.0 11.3 0.00 0.00 0.00 78 1022.3
20260906071414 16 239 6.4 9.7 0.00 0.00 0.00 78 1022.2
20260906070911 15 244 6.4 11.3 0.00 0.00 0.00 79 1022.5
20260906070407 15 230 6.4 9.7 0.00 0.00 0.00 81 1022.5
20260906065902 14 250 4.8 6.4 0.00 0.00 0.00 81 1022.4
20260906065356 14 261 4.8 6.4 0.00 0.00 0.00 80 1022.5
20260906064852 15 271 4.8 6.4 0.00 0.00 0.00 80 1022.6
20260906064349 14 275 6.4 8.0 0.00 0.00 0.00 81 1022.6
20260906063848 15 262 6.4 6.4 0.00 0.00 0.00 79 1022.6
20260906063344 15 259 4.8 6.4 0.00 0.00 0.00 79 1022.6
20260906062838 15 233 4.8 4.8 0.00 0.00 0.00 79 1022.5
20260906062338 15 257 3.2 6.4 0.00 0.00 0.00 79 1022.8
20260906061833 15 263 6.4 6.4 0.00 0.00 0.00 80 1022.4
20260906061330 15 271 4.8 8.0 0.00 0.00 0.00 78 1022.4
20260906060824 15 290 6.4 6.4 0.00 0.00 0.00 79 1022.5
20260906060322 15 272 4.8 6.4 0.00 0.00 0.00 80 1022.5
20260906055818 15 286 4.8 6.4 0.00 0.00 0.00 80 1022.6
20260906055313 15 297 3.2 6.4 0.00 0.00 0.00 78 1022.6
20260906054808 15 272 4.8 4.8 0.00 0.00 0.00 80 1022.6
20260906054303 15 349 3.2 4.8 0.00 0.00 0.00 78 1022.4
20260906053800 15 271 4.8 4.8 0.00 0.00 0.00 77 1022.5
20260906053255 15 289 3.2 4.8 0.00 0.00 0.00 77 1022.3
20260906052750 15 277 3.2 8.0 0.00 0.00 0.00 78 1022.4
20260906052246 16 335 3.2 4.8 0.00 0.00 0.00 76 1022.4
20260906051743 16 336 4.8 4.8 0.00 0.00 0.00 77 1022.3
20260906051243 15 309 4.8 6.4 0.00 0.00 0.00 77 1022.4
20260906050738 15 0 3.2 3.2 0.00 0.00 0.00 76 1022.6
20260906050233 16 281 6.4 6.4 0.00 0.00 0.00 74 1022.5
20260906045732 16 349 4.8 6.4 0.00 0.00 0.00 75 1022.5
20260906045227 16 335 3.2 4.8 0.00 0.00 0.00 74 1022.5
20260906044722 16 352 4.8 8.0 0.00 0.00 0.00 73 1022.3
20260906044218 16 339 4.8 4.8 0.00 0.00 0.00 73 1022.3
20260906043714 16 348 4.8 6.4 0.00 0.00 0.00 72 1022.5
20260906043210 17 351 1.6 6.4 0.00 0.00 0.00 71 1022.4
20260906042709 17 358 3.2 4.8 0.00 0.00 0.00 71 1022.3
20260906042208 17 29 3.2 6.4 0.00 0.00 0.00 71 1022.4
20260906041704 17 13 3.2 8.0 0.00 0.00 0.00 71 1022.4
20260906041204 17 359 4.8 6.4 0.00 0.00 0.00 70 1022.5
20260906040700 17 4 4.8 9.7 0.00 0.00 0.00 68 1022.4
20260906040155 18 9 8.0 9.7 0.00 0.00 0.00 68 1022.4
20260906035651 18 18 6.4 14.5 0.00 0.00 0.00 67 1022.3
20260906035146 18 9 9.7 14.5 0.00 0.00 0.00 65 1022.3
20260906034641 18 347 9.7 11.3 0.00 0.00 0.00 61 1022.3
20260906034136 18 329 8.0 9.7 0.00 0.00 0.00 57 1021.9
20260906033632 19 319 9.7 11.3 0.00 0.00 0.00 53 1021.9
20260906033132 20 327 6.4 8.0 0.00 0.00 0.00 49 1022.0
20260906032628 20 341 4.8 9.7 0.00 0.00 0.00 49 1022.2
20260906032127 20 344 6.4 9.7 0.00 0.00 0.00 47 1021.9
20260906031623 20 345 8.0 11.3 0.00 0.00 0.00 45 1021.9
20260906031119 21 3 6.4 9.7 0.00 0.00 0.00 40 1022.0
20260906030618 21 2 6.4 8.0 0.00 0.00 0.00 36 1022.0
20260906030114 22 4 6.4 8.0 0.00 0.00 0.00 35 1022.0
20260906025613 22 337 6.4 9.7 0.00 0.00 0.00 34 1021.7
20260906025111 22 3 9.7 11.3 0.00 0.00 0.00 34 1021.7
20260906024606 21 17 3.2 6.4 0.00 0.00 0.00 36 1021.7
20260906024101 21 302 3.2 3.2 0.00 0.00 0.00 36 1021.4
20260906023557 21 287 4.8 6.4 0.00 0.00 0.00 36 1021.5
20260906023051 21 289 8.0 8.0 0.00 0.00 0.00 35 1021.2
20260906022547 22 287 6.4 9.7 0.00 0.00 0.00 34 1021.2
20260906022042 21 281 9.7 9.7 0.00 0.00 0.00 34 1021.3
20260906021538 21 271 6.4 8.0 0.00 0.00 0.00 35 1021.3
20260906021037 22 266 6.4 9.7 0.00 0.00 0.00 35 1021.7
20260906020536 22 266 8.0 9.7 0.00 0.00 0.00 34 1021.3
20260906020036 22 266 6.4 9.7 0.00 0.00 0.00 34 1021.3
20260906015536 22 280 6.4 8.0 0.00 0.00 0.00 35 1021.1
20260906015035 22 282 6.4 9.7 0.00 0.00 0.00 34 1020.9
20260906014530 22 287 9.7 9.7 0.00 0.00 0.00 34 1021.2
20260906014026 22 282 8.0 11.3 0.00 0.00 0.00 34 1021.1
20260906013521 22 273 6.4 11.3 0.00 0.00 0.00 33 1020.9
20260906013017 22 292 8.0 12.9 0.00 0.00 0.00 33 1020.9
20260906012512 22 295 11.3 12.9 0.00 0.00 0.00 34 1021.1
20260906012011 23 285 4.8 12.9 0.00 0.00 0.00 33 1021.1
20260906011508 23 302 11.3 14.5 0.00 0.00 0.00 32 1021.2
20260906011007 23 301 14.5 16.1 0.00 0.00 0.00 31 1021.2
20260906010503 24 298 12.9 17.7 0.00 0.00 0.00 31 1021.2
20260906005959 25 299 12.9 16.1 0.00 0.00 0.00 30 1021.4
20260906005458 25 299 12.9 17.7 0.00 0.00 0.00 29 1021.3
20260906004956 25 298 14.5 17.7 0.00 0.00 0.00 29 1021.2
20260906004457 25 308 14.5 16.1 0.00 0.00 0.00 29 1021.5
20260906003952 25 303 9.7 14.5 0.00 0.00 0.00 28 1021.4
20260906003447 26 303 11.3 19.3 0.00 0.00 0.00 28 1021.2
20260906002942 26 305 16.1 20.9 0.00 0.00 0.00 27 1021.3
20260906002442 26 305 17.7 22.5 0.00 0.00 0.00 27 1021.2
20260906001938 27 308 11.3 16.1 0.00 0.00 0.00 25 1021.3
20260906001434 27 316 11.3 17.7 0.00 0.00 0.00 26 1021.2
20260906000928 26 305 17.7 25.7 0.00 0.00 0.00 26 1021.4
20260906000425 27 305 24.1 27.4 0.00 0.00 0.00 26 1021.2
20260905235919 28 301 14.5 24.1 0.00 0.00 0.00 24 1021.4
20260905235418 28 333 17.7 22.5 0.00 0.00 0.00 24 1021.2
20260905234913 28 320 17.7 20.9 0.00 0.00 0.00 24 1021.4
20260905234409 28 308 24.1 24.1 0.00 0.00 0.00 24 1021.2
20260905233903 28 324 16.1 20.9 0.00 0.00 0.00 23 1021.1
20260905233358 28 311 16.1 20.9 0.00 0.00 0.00 23 1021.2
20260905232857 28 317 16.1 17.7 0.00 0.00 0.00 24 1020.9
20260905232354 28 35 8.0 11.3 0.00 0.00 0.00 24 1021.1
20260905231849 28 356 6.4 11.3 0.00 0.00 0.00 23 1020.9
20260905231350 28 2 8.0 14.5 0.00 0.00 0.00 23 1020.9
20260905230847 28 330 4.8 12.9 0.00 0.00 0.00 24 1020.9
20260905230344 28 357 11.3 14.5 0.00 0.00 0.00 23 1021.2
20260905225843 28 6 11.3 14.5 0.00 0.00 0.00 23 1020.9
20260905225338 28 354 9.7 9.7 0.00 0.00 0.00 23 1021.2
20260905224833 28 325 6.4 8.0 0.00 0.00 0.00 23 1020.8
20260905224330 28 91 4.8 12.9 0.00 0.00 0.00 22 1021.1
20260905223830 30 60 12.9 16.1 0.00 0.00 0.00 22 1020.9
20260905223328 29 21 14.5 17.7 0.00 0.00 0.00 22 1020.8
20260905222822 29 84 6.4 9.7 0.00 0.00 0.00 22 1020.8
20260905222321 28 112 6.4 14.5 0.00 0.00 0.00 23 1021.1
20260905221817 28 74 4.8 16.1 0.00 0.00 0.00 23 1021.1
20260905221314 28 63 4.8 9.7 0.00 0.00 0.00 23 1021.2
20260905220810 28 348 8.0 12.9 0.00 0.00 0.00 23 1021.2
20260905220306 28 3 9.7 12.9 0.00 0.00 0.00 23 1021.1
20260905215805 28 12 12.9 19.3 0.00 0.00 0.00 23 1021.2
20260905215300 28 35 11.3 19.3 0.00 0.00 0.00 23 1021.2
20260905214756 28 42 14.5 16.1 0.00 0.00 0.00 23 1021.2
20260905214252 28 68 14.5 16.1 0.00 0.00 0.00 22 1021.2
20260905213747 28 83 6.4 12.9 0.00 0.00 0.00 22 1021.1
20260905213244 28 146 6.4 16.1 0.00 0.00 0.00 22 1021.2
20260905212744 28 79 4.8 16.1 0.00 0.00 0.00 22 1021.2